| time (UTC) | temp F | wind direction | speed MPH | gust MPH | rain 1hr in | rain 24hr in | rain mn in | humidity % | barometer mb |
| 20260509220047 | 57 | 199 | 7.0 | 11.0 | 0.00 | 0.36 | 0.36 | 81 | 1012.0 |
| 20260509214546 | 57 | 238 | 8.0 | 12.0 | 0.00 | 0.36 | 0.36 | 82 | 1012.0 |
| 20260509213049 | 57 | 250 | 6.0 | 10.0 | 0.00 | 0.36 | 0.36 | 82 | 1012.2 |
| 20260509211550 | 56 | 267 | 5.0 | 9.0 | 0.00 | 0.36 | 0.36 | 84 | 1012.3 |
| 20260509210039 | 56 | 225 | 3.0 | 8.0 | 0.00 | 0.36 | 0.36 | 85 | 1012.5 |
| 20260509204537 | 55 | 234 | 4.0 | 7.0 | 0.00 | 0.36 | 0.36 | 85 | 1012.7 |
| 20260509203044 | 55 | 208 | 5.0 | 9.0 | 0.00 | 0.36 | 0.36 | 85 | 1012.8 |
| 20260509201534 | 55 | 242 | 5.0 | 10.0 | 0.00 | 0.36 | 0.36 | 86 | 1012.9 |
| 20260509200031 | 54 | 226 | 3.0 | 9.0 | 0.01 | 0.36 | 0.36 | 88 | 1012.9 |
| 20260509194530 | 54 | 226 | 2.0 | 5.0 | 0.01 | 0.36 | 0.36 | 88 | 1013.3 |
| 20260509193031 | 54 | 254 | 3.0 | 5.0 | 0.03 | 0.36 | 0.36 | 87 | 1013.2 |
| 20260509191530 | 53 | 209 | 1.0 | 4.0 | 0.03 | 0.36 | 0.36 | 87 | 1013.3 |
| 20260509190027 | 53 | 222 | 3.0 | 5.0 | 0.03 | 0.35 | 0.35 | 86 | 1013.4 |
| 20260509184532 | 53 | 232 | 4.0 | 10.0 | 0.03 | 0.35 | 0.35 | 86 | 1013.5 |
| 20260509183026 | 53 | 205 | 3.0 | 8.0 | 0.01 | 0.33 | 0.33 | 86 | 1013.5 |
| 20260509181525 | 53 | 212 | 2.0 | 7.0 | 0.01 | 0.33 | 0.33 | 85 | 1013.5 |
| 20260509180024 | 54 | 224 | 4.0 | 8.0 | 0.00 | 0.32 | 0.32 | 85 | 1013.4 |
| 20260509174524 | 54 | 204 | 4.0 | 9.0 | 0.00 | 0.32 | 0.32 | 85 | 1013.4 |
| 20260509173023 | 54 | 211 | 4.0 | 10.0 | 0.00 | 0.32 | 0.32 | 85 | 1013.4 |
| 20260509171521 | 53 | 228 | 4.0 | 9.0 | 0.00 | 0.32 | 0.32 | 86 | 1013.4 |
| 20260509170019 | 53 | 212 | 5.0 | 8.0 | 0.00 | 0.32 | 0.32 | 86 | 1013.4 |
| 20260509164519 | 53 | 200 | 4.0 | 12.0 | 0.00 | 0.32 | 0.32 | 86 | 1013.5 |
| 20260509163016 | 52 | 204 | 4.0 | 9.0 | 0.00 | 0.32 | 0.32 | 87 | 1013.6 |
| 20260509161517 | 52 | 215 | 2.0 | 8.0 | 0.00 | 0.32 | 0.32 | 87 | 1013.7 |
| 20260509160013 | 52 | 215 | 3.0 | 7.0 | 0.00 | 0.32 | 0.32 | 87 | 1013.9 |
| 20260509154519 | 52 | 219 | 2.0 | 8.0 | 0.01 | 0.32 | 0.32 | 87 | 1014.1 |
| 20260509153013 | 52 | 213 | 4.0 | 9.0 | 0.01 | 0.32 | 0.32 | 88 | 1014.0 |
| 20260509151506 | 52 | 204 | 2.0 | 6.0 | 0.02 | 0.32 | 0.32 | 88 | 1014.3 |
| 20260509144604 | 52 | 142 | 1.0 | 5.0 | 0.03 | 0.31 | 0.31 | 89 | 1014.7 |
| 20260509143100 | 51 | 97 | 1.0 | 4.0 | 0.03 | 0.31 | 0.31 | 89 | 1014.9 |
| 20260509141558 | 51 | 106 | 1.0 | 3.0 | 0.03 | 0.30 | 0.30 | 89 | 1015.0 |
| 20260509140057 | 51 | 107 | 1.0 | 3.0 | 0.03 | 0.28 | 0.28 | 89 | 1014.8 |
| 20260509134552 | 51 | 107 | 2.0 | 3.0 | 0.03 | 0.28 | 0.28 | 89 | 1014.8 |
| 20260509133049 | 50 | 107 | 1.0 | 4.0 | 0.04 | 0.28 | 0.28 | 89 | 1015.0 |
| 20260509131551 | 50 | 107 | 1.0 | 4.0 | 0.05 | 0.27 | 0.27 | 89 | 1015.0 |
| 20260509130056 | 50 | 134 | 2.0 | 7.0 | 0.06 | 0.26 | 0.26 | 89 | 1015.2 |
| 20260509124542 | 50 | 216 | 1.0 | 3.0 | 0.07 | 0.25 | 0.25 | 89 | 1015.4 |
| 20260509123034 | 50 | 227 | 1.0 | 3.0 | 0.07 | 0.23 | 0.23 | 88 | 1015.4 |
| 20260509121533 | 50 | 180 | 1.0 | 5.0 | 0.07 | 0.22 | 0.22 | 89 | 1015.2 |
| 20260509120034 | 49 | 210 | 1.0 | 5.0 | 0.05 | 0.19 | 0.19 | 89 | 1015.4 |
| 20260509114531 | 49 | 209 | 0.0 | 3.0 | 0.05 | 0.18 | 0.18 | 88 | 1015.4 |
| 20260509113031 | 49 | 209 | 2.0 | 6.0 | 0.06 | 0.16 | 0.16 | 88 | 1015.3 |
| 20260509111526 | 49 | 212 | 4.0 | 9.0 | 0.09 | 0.15 | 0.15 | 88 | 1015.5 |
| 20260509110025 | 48 | 141 | 2.0 | 6.0 | 0.09 | 0.14 | 0.14 | 88 | 1015.3 |
| 20260509104524 | 48 | 136 | 0.0 | 5.0 | 0.08 | 0.12 | 0.12 | 88 | 1015.1 |
| 20260509103021 | 48 | 72 | 0.0 | 2.0 | 0.06 | 0.10 | 0.10 | 88 | 1015.4 |
| 20260509101516 | 48 | 71 | 1.0 | 2.0 | 0.02 | 0.06 | 0.06 | 88 | 1015.4 |
| 20260509100018 | 48 | 71 | 0.0 | 2.0 | 0.01 | 0.05 | 0.05 | 88 | 1015.3 |
| 20260509094510 | 47 | 71 | 1.0 | 3.0 | 0.00 | 0.04 | 0.04 | 87 | 1015.4 |
| 20260509093010 | 47 | 69 | 0.0 | 2.0 | 0.00 | 0.04 | 0.04 | 87 | 1015.3 |
| 20260509091509 | 47 | 69 | 1.0 | 2.0 | 0.00 | 0.04 | 0.04 | 87 | 1015.3 |
| 20260509090008 | 47 | 69 | 1.0 | 3.0 | 0.00 | 0.04 | 0.04 | 87 | 1015.3 |
| 20260509084510 | 46 | 69 | 2.0 | 4.0 | 0.01 | 0.04 | 0.04 | 86 | 1015.4 |
| 20260509083014 | 46 | 70 | 1.0 | 4.0 | 0.01 | 0.04 | 0.04 | 86 | 1015.6 |
| 20260509081511 | 46 | 70 | 3.0 | 5.0 | 0.01 | 0.04 | 0.04 | 85 | 1015.8 |
| 20260509080003 | 46 | 228 | 0.0 | 2.0 | 0.01 | 0.04 | 0.04 | 85 | 1016.0 |
| 20260509074505 | 46 | 228 | 0.0 | 2.0 | 0.00 | 0.03 | 0.03 | 85 | 1016.1 |
| 20260509073005 | 46 | 228 | 0.0 | 3.0 | 0.01 | 0.03 | 0.03 | 84 | 1016.1 |
| 20260509071502 | 46 | 228 | 0.0 | 2.0 | 0.02 | 0.03 | 0.03 | 84 | 1015.6 |
| 20260509070002 | 47 | 228 | 0.0 | 0.0 | 0.03 | 0.03 | 0.03 | 83 | 1015.7 |
| 20260509064600 | 46 | 228 | 0.0 | 0.0 | 0.03 | 0.03 | 0.03 | 82 | 1015.7 |
| 20260509063058 | 46 | 228 | 0.0 | 2.0 | 0.03 | 0.03 | 0.03 | 82 | 1016.1 |
| 20260509061614 | 47 | 228 | 0.0 | 2.0 | 0.01 | 0.01 | 0.01 | 81 | 1016.3 |
| 20260509060120 | 47 | 228 | 0.0 | 1.0 | 0.00 | 0.00 | 0.00 | 79 | 1016.4 |
| 20260509054559 | 47 | 228 | 0.0 | 3.0 | 0.00 | 0.00 | 0.00 | 78 | 1016.6 |
| 20260509053052 | 47 | 219 | 1.0 | 3.0 | 0.00 | 0.00 | 0.00 | 77 | 1016.6 |
| 20260509051553 | 47 | 204 | 0.0 | 0.0 | 0.00 | 0.00 | 0.00 | 76 | 1016.6 |
| 20260509050105 | 47 | 204 | 0.0 | 0.0 | 0.00 | 0.00 | 0.00 | 76 | 1016.5 |
| 20260509044558 | 47 | 204 | 0.0 | 0.0 | 0.00 | 0.00 | 0.00 | 75 | 1016.6 |
| 20260509043046 | 47 | 204 | 0.0 | 0.0 | 0.00 | 0.00 | 0.00 | 75 | 1016.7 |
| 20260509041547 | 47 | 204 | 0.0 | 2.0 | 0.00 | 0.00 | 0.00 | 75 | 1016.8 |
| 20260509040043 | 47 | 204 | 0.0 | 0.0 | 0.00 | 0.00 | 0.00 | 74 | 1016.9 |
| 20260509034543 | 47 | 204 | 0.0 | 0.0 | 0.00 | 0.00 | 0.00 | 74 | 1016.9 |
| 20260509033042 | 46 | 204 | 0.0 | 4.0 | 0.00 | 0.00 | 0.00 | 73 | 1016.8 |
| 20260509031546 | 47 | 203 | 0.0 | 1.0 | 0.00 | 0.00 | 0.00 | 71 | 1016.8 |
| 20260509030043 | 47 | 203 | 1.0 | 2.0 | 0.00 | 0.00 | 0.00 | 71 | 1016.9 |
| 20260509024540 | 48 | 203 | 1.0 | 3.0 | 0.00 | 0.00 | 0.00 | 69 | 1017.0 |
| 20260509023050 | 48 | 201 | 1.0 | 4.0 | 0.00 | 0.00 | 0.00 | 68 | 1017.1 |
| 20260509021540 | 49 | 200 | 1.0 | 3.0 | 0.00 | 0.00 | 0.00 | 65 | 1016.8 |
| 20260509020039 | 50 | 200 | 3.0 | 4.0 | 0.00 | 0.00 | 0.00 | 63 | 1017.0 |
| 20260509014539 | 50 | 213 | 0.0 | 3.0 | 0.00 | 0.00 | 0.00 | 62 | 1016.8 |
| 20260509013039 | 51 | 213 | 0.0 | 1.0 | 0.00 | 0.00 | 0.00 | 59 | 1016.8 |
| 20260509011538 | 52 | 213 | 0.0 | 2.0 | 0.00 | 0.00 | 0.00 | 57 | 1016.6 |
| 20260509010037 | 52 | 213 | 0.0 | 4.0 | 0.00 | 0.00 | 0.00 | 55 | 1016.5 |
| 20260509004540 | 53 | 213 | 2.0 | 3.0 | 0.00 | 0.00 | 0.00 | 53 | 1016.3 |
| 20260509003045 | 53 | 89 | 1.0 | 3.0 | 0.00 | 0.00 | 0.00 | 53 | 1016.2 |
| 20260509001536 | 55 | 51 | 0.0 | 1.0 | 0.00 | 0.00 | 0.00 | 51 | 1016.0 |
| 20260509000041 | 56 | 51 | 1.0 | 3.0 | 0.00 | 0.00 | 0.00 | 48 | 1015.8 |
| 20260508234538 | 57 | 51 | 0.0 | 3.0 | 0.00 | 0.00 | 0.00 | 45 | 1015.7 |
| 20260508233035 | 57 | 51 | 2.0 | 4.0 | 0.00 | 0.00 | 0.00 | 43 | 1015.4 |
| 20260508231534 | 58 | 51 | 3.0 | 5.0 | 0.00 | 0.00 | 0.00 | 42 | 1015.4 |
| 20260508230040 | 59 | 26 | 1.0 | 4.0 | 0.00 | 0.00 | 0.00 | 42 | 1015.4 |
| 20260508224535 | 59 | 26 | 2.0 | 6.0 | 0.00 | 0.00 | 0.00 | 40 | 1015.5 |
| 20260508223037 | 60 | 67 | 3.0 | 8.0 | 0.00 | 0.00 | 0.00 | 40 | 1015.4 |
| 20260508221535 | 60 | 49 | 6.0 | 10.0 | 0.00 | 0.00 | 0.00 | 39 | 1015.3 |